Change the Weather History Date:

Monday, February 20, 2012

  Actual Average Record
Temperature  
Mean Temperature 39 °F -  
Max Temperature 56 °F 50 °F 75 °F (2014)
Min Temperature 22 °F 35 °F 9 °F (2015)
Degree Days  
Heating Degree Days 26    
Moisture  
Dew Point 27 °F    
Average Humidity 73    
Maximum Humidity 100    
Minimum Humidity 31    
Precipitation  
Precipitation 0.00 in - - ()
Sea Level Pressure  
Sea Level Pressure 30.20 in    
Wind  
Wind Speed 2 mph (SE)    
Max Wind Speed 12 mph    
Max Gust Speed -    
Visibility 8 miles    
Events      
Averages and records for this station are not official NWS values.
T = Trace of Precipitation, MM = Missing Value Source: NWS Daily Summary

Daily Weather History Graph

Daily Weather History Graph

Search for Another Location

Airport or City:

Trip Planner

Search our weather history database for the weather conditions in past years. The results will help you decide how hot, cold, wet, or windy it might be!

Date:

Astronomy

Feb. 20, 2012 Rise Set
Actual Time 6:28 AM CST 5:32 PM CST
Civil Twilight 6:02 AM CST 5:58 PM CST
Nautical Twilight 5:32 AM CST 6:27 PM CST
Astronomical Twilight 5:02 AM CST 6:57 PM CST
Moon 5:23 AM CST (2/20) 4:36 PM CST (2/20)
Length of Visible Light 11h 55m
Length of Day
11h 03m
Waning Crescent, 1% of the Moon is Illuminated
Feb 20
Waning Crescent
Feb 21
New
Feb 29
First Quarter
Mar 8
Full
Mar 14
Last Quarter

Hourly Weather History & Observations

Time (CST) Temp. Windchill Dew Point Humidity Pressure Visibility Wind Dir Wind Speed Gust Speed Precip Events Conditions
12:07 AM 26.6 °F - 26.6 °F 100% 30.15 in 1.8 mi Calm Calm - N/A   Clear
12:30 AM 26.6 °F - 26.6 °F 100% 30.17 in 3.0 mi Calm Calm - N/A   Clear
1:26 AM 26.6 °F - 24.8 °F 93% 30.18 in 1.8 mi Calm Calm - N/A   Clear
1:41 AM 24.8 °F - 24.8 °F 100% 30.18 in 2.5 mi Calm Calm - N/A   Clear
1:56 AM 24.1 °F - 23.0 °F 96% 30.18 in 4.0 mi Calm Calm - N/A   Clear
2:56 AM 24.1 °F - 22.1 °F 92% 30.20 in 5.0 mi Calm Calm - N/A   Clear
3:56 AM 23.0 °F - 21.0 °F 92% 30.21 in 6.0 mi Calm Calm - N/A   Clear
4:11 AM 24.8 °F - 21.2 °F 86% 30.22 in 6.0 mi Calm Calm - N/A   Partly Cloudy
4:56 AM 22.1 °F - 21.0 °F 96% 30.27 in 6.0 mi Calm Calm - N/A   Clear
5:56 AM 22.1 °F - 20.1 °F 92% 30.29 in 9.0 mi Calm Calm - N/A   Clear
6:56 AM 24.1 °F - 22.1 °F 92% 30.29 in 7.0 mi Calm Calm - N/A   Clear
7:56 AM 30.0 °F - 28.0 °F 92% 30.31 in 10.0 mi Calm Calm - N/A   Clear
8:56 AM 34.9 °F 29.0 °F 32.9 °F 92% 30.30 in 10.0 mi East 6.9 mph - N/A   Clear
9:56 AM 41.0 °F 34.3 °F 32.9 °F 73% 30.29 in 10.0 mi East 11.5 mph - N/A   Clear
10:56 AM 46.9 °F - 31.1 °F 54% 30.28 in 10.0 mi East 6.9 mph - N/A   Clear
11:56 AM 50.9 °F - 28.0 °F 41% 30.25 in 10.0 mi East 10.4 mph - N/A   Clear
12:56 PM 54.0 °F - 26.1 °F 34% 30.24 in 10.0 mi Variable 3.5 mph - N/A   Clear
1:56 PM 56.8 °F - 27.1 °F 32% 30.20 in 10.0 mi ENE 8.1 mph - N/A   Clear
2:56 PM 56.8 °F - 27.1 °F 32% 30.19 in 10.0 mi SE 5.8 mph - N/A   Clear
3:56 PM 56.8 °F - 26.1 °F 31% 30.18 in 10.0 mi South 6.9 mph - N/A   Clear
4:56 PM 54.0 °F - 28.0 °F 37% 30.14 in 10.0 mi SSE 5.8 mph - N/A   Clear
5:56 PM 45.0 °F - 29.1 °F 54% 30.14 in 10.0 mi Calm Calm - N/A   Clear
6:56 PM 39.9 °F - 30.0 °F 68% 30.13 in 10.0 mi Calm Calm - N/A   Clear
9:56 PM 36.9 °F - 31.1 °F 80% 30.09 in 10.0 mi Calm Calm - N/A   Clear
10:56 PM 34.9 °F 29.9 °F 30.0 °F 82% 30.07 in 10.0 mi South 5.8 mph - N/A   Clear
11:56 PM 41.0 °F 39.0 °F 31.1 °F 68% 30.09 in 10.0 mi South 3.5 mph - N/A   Clear